Weather History for KPVJ - April, 2013

Change the Weather History Date:

Thursday, April 18, 2013

  Actual Average (KADH) Record (KADH)
Temperature  
Mean Temperature 54 °F -  
Max Temperature 73 °F 74 °F 98 °F (1925)
Min Temperature 35 °F 51 °F 31 °F (1953)
Degree Days  
Heating Degree Days 11    
Growing Degree Days 4 (Base 50)    
Moisture  
Dew Point 37 °F    
Average Humidity 74    
Maximum Humidity 100    
Minimum Humidity 53    
Precipitation  
Precipitation 0.35 in - - ()
Sea Level Pressure  
Sea Level Pressure 29.91 in    
Wind  
Wind Speed 21 mph (NW)    
Max Wind Speed 33 mph    
Max Gust Speed 43 mph    
Visibility 10 miles    
Events Rain , Thunderstorm    
Averages and records for this station are not official NWS values.
T = Trace of Precipitation, MM = Missing Value Source: NWS Daily Summary

Daily Weather History Graph

Daily Weather History Graph

Search for Another Location

Airport or City:

Trip Planner

Search our weather history database for the weather conditions in past years. The results will help you decide how hot, cold, wet, or windy it might be!

Date:

Astronomy

Apr. 18, 2013 Rise Set
Actual Time 6:53 AM CDT 8:03 PM CDT
Civil Twilight 6:27 AM CDT 8:29 PM CDT
Nautical Twilight 5:55 AM CDT 9:01 PM CDT
Astronomical Twilight 5:23 AM CDT 9:33 PM CDT
Moon 1:08 PM CDT (4/18) 2:15 AM CDT (4/18)
Length of Visible Light 14h 02m
Length of Day
13h 10m
First Quarter, 52% of the Moon is Illuminated
Apr 18
First Quarter
Apr 25
Full
May 2
Last Quarter
May 9
New
May 17
First Quarter

Hourly Weather History & Observations

Time (CDT) Temp. Windchill Dew Point Humidity Pressure Visibility Wind Dir Wind Speed Gust Speed Precip Events Conditions
12:15 AM 71.6 °F - 66.2 °F 83% 29.55 in 7.0 mi South 21.9 mph 35.7 mph 0.03 in Rain , Thunderstorm Thunderstorms and Rain
12:35 AM 73.4 °F - 66.2 °F 78% 29.56 in 10.0 mi South 26.5 mph 33.4 mph 0.03 in   Unknown
12:55 AM 73.4 °F - 66.2 °F 78% 29.56 in 10.0 mi South 25.3 mph 38.0 mph 0.03 in   Unknown
1:15 AM 73.4 °F - 66.2 °F 78% 29.56 in 10.0 mi South 19.6 mph 31.1 mph N/A   Unknown
1:35 AM 73.4 °F - 66.2 °F 78% 29.56 in 10.0 mi SSW 17.3 mph 25.3 mph N/A Rain Light Rain
1:55 AM 53.6 °F - 50.0 °F 88% 29.62 in 10.0 mi NW 33.4 mph 42.6 mph 0.01 in Rain , Thunderstorm Light Thunderstorms and Rain
2:15 AM 46.4 °F 37.7 °F 46.4 °F 100% 29.65 in 5.0 mi NW 26.5 mph 36.8 mph 0.05 in Rain , Thunderstorm Thunderstorms and Rain
2:35 AM 46.4 °F 37.7 °F 44.6 °F 93% 29.67 in 4.0 mi NW 26.5 mph 34.5 mph 0.11 in Rain , Thunderstorm Light Thunderstorms and Rain
2:55 AM 44.6 °F 34.9 °F 42.8 °F 93% 29.68 in 3.0 mi NW 28.8 mph 39.1 mph 0.24 in Rain , Thunderstorm Heavy Thunderstorms and Rain
3:15 AM 42.8 °F 32.7 °F 42.8 °F 100% 29.69 in 10.0 mi NW 27.6 mph 35.7 mph 0.07 in Rain , Thunderstorm Light Thunderstorms and Rain
3:35 AM 42.8 °F 33.5 °F 41.0 °F 93% 29.73 in 10.0 mi NW 23.0 mph 32.2 mph 0.07 in Thunderstorm Unknown
3:55 AM 42.8 °F 32.5 °F 41.0 °F 93% 29.73 in 7.0 mi NNW 28.8 mph 34.5 mph 0.07 in   Light Drizzle
4:15 AM 42.8 °F 33.5 °F 41.0 °F 93% 29.74 in 7.0 mi NNW 23.0 mph 31.1 mph N/A   Unknown
4:35 AM 42.8 °F 34.5 °F 41.0 °F 93% 29.75 in 10.0 mi NNW 18.4 mph - N/A Rain Light Rain
4:55 AM 42.8 °F 34.3 °F 41.0 °F 93% 29.76 in 10.0 mi NNW 19.6 mph 24.2 mph N/A   Unknown
5:15 AM 42.8 °F 34.0 °F 39.2 °F 87% 29.76 in 10.0 mi NNW 20.7 mph - N/A   Unknown
5:35 AM 42.8 °F 33.8 °F 37.4 °F 81% 29.78 in 10.0 mi NNW 21.9 mph 28.8 mph N/A   Unknown
5:55 AM 42.8 °F 33.1 °F 37.4 °F 81% 29.80 in 10.0 mi NNW 25.3 mph 31.1 mph N/A   Unknown
6:15 AM 41.0 °F 30.9 °F 35.6 °F 81% 29.81 in 10.0 mi NNW 24.2 mph 35.7 mph N/A   Unknown
6:35 AM 41.0 °F 31.4 °F 35.6 °F 81% 29.83 in 10.0 mi NNW 21.9 mph 33.4 mph N/A   Unknown
6:55 AM 41.0 °F 30.9 °F 35.6 °F 81% 29.84 in 10.0 mi NNW 24.2 mph 28.8 mph N/A   Unknown
7:15 AM 41.0 °F 32.2 °F 35.6 °F 81% 29.88 in 10.0 mi NNW 18.4 mph 32.2 mph N/A   Unknown
7:35 AM 41.0 °F 31.6 °F 35.6 °F 81% 29.89 in 10.0 mi NNW 20.7 mph 28.8 mph N/A   Unknown
7:55 AM 41.0 °F 32.5 °F 33.8 °F 76% 29.90 in 10.0 mi NNW 17.3 mph 29.9 mph N/A   Unknown
8:15 AM 41.0 °F 32.8 °F 33.8 °F 76% 29.92 in 10.0 mi NNW 16.1 mph 25.3 mph N/A   Unknown
8:35 AM 39.2 °F 29.6 °F 33.8 °F 81% 29.94 in 10.0 mi NNW 19.6 mph 26.5 mph N/A   Unknown
8:55 AM 39.2 °F 29.8 °F 33.8 °F 81% 29.95 in 10.0 mi NNW 18.4 mph 26.5 mph N/A   Unknown
9:15 AM 39.2 °F 29.8 °F 33.8 °F 81% 29.96 in 10.0 mi NNW 18.4 mph 25.3 mph N/A   Unknown
9:35 AM 39.2 °F 29.0 °F 32.0 °F 75% 29.96 in 10.0 mi NNW 21.9 mph 27.6 mph N/A   Unknown
9:55 AM 41.0 °F 30.9 °F 32.0 °F 70% 29.96 in 10.0 mi NNW 24.2 mph 27.6 mph N/A   Unknown
10:15 AM 41.0 °F 32.2 °F 32.0 °F 70% 29.96 in 10.0 mi NNW 18.4 mph 25.3 mph N/A   Unknown
10:35 AM 39.2 °F 28.5 °F 32.0 °F 75% 29.94 in 10.0 mi NW 24.2 mph 29.9 mph N/A   Unknown
10:55 AM 41.0 °F 31.9 °F 32.0 °F 70% 29.94 in 10.0 mi NNW 19.6 mph 33.4 mph N/A   Unknown
11:15 AM 42.8 °F 33.5 °F 32.0 °F 66% 29.97 in 10.0 mi NNW 23.0 mph 33.4 mph N/A   Unknown
11:35 AM 41.0 °F 32.5 °F 32.0 °F 70% 29.97 in 10.0 mi NW 17.3 mph 26.5 mph N/A   Unknown
11:55 AM 42.8 °F 34.5 °F 33.8 °F 70% 29.97 in 10.0 mi NW 18.4 mph 23.0 mph N/A   Unknown
12:15 PM 42.8 °F 34.3 °F 32.0 °F 66% 29.98 in 10.0 mi NW 19.6 mph 28.8 mph N/A   Unknown
12:35 PM 42.8 °F 35.1 °F 32.0 °F 66% 29.98 in 10.0 mi NW 16.1 mph 32.2 mph N/A   Unknown
12:55 PM 42.8 °F 33.8 °F 32.0 °F 66% 29.99 in 10.0 mi NW 21.9 mph 28.8 mph N/A   Unknown
1:15 PM 42.8 °F 34.3 °F 32.0 °F 66% 29.99 in 10.0 mi NW 19.6 mph 25.3 mph N/A   Unknown
1:35 PM 44.6 °F 36.1 °F 33.8 °F 66% 29.99 in 10.0 mi NW 21.9 mph 26.5 mph N/A   Unknown
1:55 PM 44.6 °F 36.6 °F 33.8 °F 66% 29.99 in 10.0 mi NW 19.6 mph 24.2 mph N/A   Unknown
2:15 PM 46.4 °F 38.7 °F 33.8 °F 62% 29.99 in 10.0 mi NW 20.7 mph 29.9 mph N/A   Unknown
2:35 PM 46.4 °F 38.7 °F 33.8 °F 62% 29.99 in 10.0 mi NW 20.7 mph 25.3 mph N/A   Unknown
2:55 PM 46.4 °F 38.7 °F 33.8 °F 62% 29.99 in 10.0 mi NNW 20.7 mph 32.2 mph N/A   Unknown
3:35 PM 46.4 °F 39.0 °F 33.8 °F 62% 30.00 in 10.0 mi NW 19.6 mph 26.5 mph N/A   Unknown
3:55 PM 46.4 °F 38.7 °F 32.0 °F 57% 30.01 in 10.0 mi NNW 20.7 mph 26.5 mph N/A   Unknown
4:15 PM 46.4 °F 39.2 °F 32.0 °F 57% 30.01 in 10.0 mi NNW 18.4 mph 28.8 mph N/A   Unknown
4:35 PM 46.4 °F 38.7 °F 32.0 °F 57% 30.01 in 10.0 mi NNW 20.7 mph 27.6 mph N/A   Unknown
4:55 PM 48.2 °F - 32.0 °F 54% 30.01 in 10.0 mi NNW 23.0 mph 28.8 mph N/A   Unknown
5:15 PM 46.4 °F 38.7 °F 32.0 °F 57% 30.01 in 10.0 mi NNW 20.7 mph 27.6 mph N/A   Unknown
5:35 PM 46.4 °F 39.8 °F 32.0 °F 57% 30.02 in 10.0 mi NNW 16.1 mph 23.0 mph N/A   Unknown
5:55 PM 46.4 °F 39.2 °F 30.2 °F 53% 30.02 in 10.0 mi NW 18.4 mph 29.9 mph N/A   Unknown
6:15 PM 46.4 °F 39.0 °F 30.2 °F 53% 30.03 in 10.0 mi NW 19.6 mph 29.9 mph N/A   Unknown
6:35 PM 44.6 °F 36.6 °F 30.2 °F 57% 30.04 in 10.0 mi North 19.6 mph 25.3 mph N/A   Unknown
6:55 PM 44.6 °F 36.1 °F 30.2 °F 57% 30.05 in 10.0 mi NNW 21.9 mph 31.1 mph N/A   Unknown
7:15 PM 44.6 °F 38.1 °F 30.2 °F 57% 30.06 in 10.0 mi NNW 13.8 mph 28.8 mph N/A   Unknown
7:35 PM 42.8 °F 34.3 °F 28.4 °F 57% 30.06 in 10.0 mi NNW 19.6 mph 25.3 mph N/A   Unknown
7:55 PM 42.8 °F 36.2 °F 30.2 °F 61% 30.08 in 10.0 mi NNW 12.7 mph - N/A   Unknown
8:15 PM 41.0 °F 35.2 °F 30.2 °F 65% 30.08 in 10.0 mi NNW 9.2 mph - N/A   Unknown
8:35 PM 41.0 °F 35.8 °F 30.2 °F 65% 30.10 in 10.0 mi NNW 8.1 mph - N/A   Unknown
9:55 PM 37.4 °F 32.8 °F 32.0 °F 81% 30.14 in 10.0 mi NNW 5.8 mph - N/A   Unknown
10:35 PM 37.4 °F 34.9 °F 32.0 °F 81% 30.16 in 10.0 mi NW 3.5 mph - N/A   Unknown
10:55 PM 37.4 °F 34.9 °F 32.0 °F 81% 30.16 in 10.0 mi NW 3.5 mph - N/A   Unknown
11:15 PM 37.4 °F - 32.0 °F 81% 30.16 in 10.0 mi Calm Calm - N/A   Unknown
11:35 PM 35.6 °F 32.8 °F 32.0 °F 87% 30.15 in 10.0 mi WNW 3.5 mph - N/A   Unknown
11:55 PM 35.6 °F - 32.0 °F 87% 30.15 in 10.0 mi Calm Calm - N/A   Unknown